Location: Kiltepe
(36.4752°N, 30.0120°E)
Time: 10:45:16
(UTC+00:00)

COSMOS 2455 - Pass Details

Date: 03 August 2024
Orbit: 898 x 911 km, 67.2° (Epoch: 18 September)

Event Time Altitude Azimuth Distance (km) Brightness Sun altitude
Rises 19:33:46 0° 330° (NNW) 3,546 7.2 -25.4°
Reaches altitude 10° 19:36:18 10° 328° (NNW) 2,601 6.3 -25.7°
Maximum altitude 19:42:16 67° 247° (WSW) 984 3.0 -26.5°
Enters shadow 19:43:12 58° 201° (SSW) 1,053 2.9 -26.6°
